TimeCST,TemperatureF,Dew PointF,Humidity,Sea Level PressureIn,VisibilityMPH,Wind Direction,Wind SpeedMPH,Gust SpeedMPH,PrecipitationIn,Events,Conditions,WindDirDegrees,DateUTC
12:15 AM,38.8,35.2,87,30.08,5.0,ENE,8.1,-,N/A,,Overcast,70,2012-11-30 06:15:00
12:35 AM,38.8,35.6,88,30.07,5.0,ENE,8.1,-,N/A,,Overcast,70,2012-11-30 06:35:00
12:55 AM,39.2,36.0,88,30.07,5.0,ENE,9.2,-,N/A,,Overcast,70,2012-11-30 06:55:00
1:15 AM,39.0,35.8,88,30.07,5.0,ENE,6.9,-,N/A,,Overcast,60,2012-11-30 07:15:00
1:35 AM,39.2,36.0,88,30.08,5.0,NE,6.9,-,N/A,,Overcast,50,2012-11-30 07:35:00
1:55 AM,39.2,36.1,89,30.09,5.0,NE,8.1,-,N/A,,Overcast,40,2012-11-30 07:55:00
2:15 AM,39.2,36.5,90,30.09,5.0,NE,9.2,-,N/A,,Overcast,40,2012-11-30 08:15:00
2:35 AM,39.2,36.5,90,30.08,5.0,NE,9.2,16.1,N/A,,Overcast,50,2012-11-30 08:35:00
2:55 AM,38.7,36.0,90,30.07,5.0,ENE,9.2,-,N/A,,Overcast,60,2012-11-30 08:55:00
3:15 AM,38.5,35.6,89,30.07,5.0,ENE,9.2,-,N/A,,Overcast,70,2012-11-30 09:15:00
3:35 AM,38.5,35.6,89,30.08,5.0,NE,5.8,-,N/A,,Overcast,50,2012-11-30 09:35:00
3:55 AM,38.5,35.6,89,30.08,5.0,NE,5.8,-,N/A,,Overcast,50,2012-11-30 09:55:00
4:15 AM,38.3,35.4,89,30.07,5.0,ENE,8.1,-,N/A,,Overcast,60,2012-11-30 10:15:00
4:35 AM,38.3,35.2,89,30.06,7.0,ENE,9.2,-,N/A,,Overcast,70,2012-11-30 10:35:00
4:55 AM,38.3,35.1,88,30.06,7.0,ENE,10.4,-,N/A,,Overcast,60,2012-11-30 10:55:00
5:15 AM,38.3,35.1,88,30.06,7.0,ENE,9.2,-,N/A,,Overcast,60,2012-11-30 11:15:00
5:35 AM,38.3,35.4,89,30.06,7.0,NE,9.2,-,N/A,,Overcast,40,2012-11-30 11:35:00
5:55 AM,38.3,35.6,90,30.07,7.0,NE,4.6,-,N/A,,Overcast,40,2012-11-30 11:55:00
6:15 AM,38.5,35.8,90,30.07,7.0,NNE,6.9,-,N/A,,Overcast,30,2012-11-30 12:15:00
6:35 AM,38.7,36.0,90,30.08,5.0,NE,4.6,-,N/A,,Overcast,40,2012-11-30 12:35:00
6:55 AM,38.7,36.0,90,30.08,5.0,NNE,6.9,-,N/A,,Overcast,30,2012-11-30 12:55:00
7:15 AM,38.8,36.1,90,30.09,5.0,NNE,6.9,-,N/A,,Overcast,20,2012-11-30 13:15:00
7:35 AM,39.2,36.5,90,30.09,5.0,NNE,6.9,-,N/A,,Overcast,20,2012-11-30 13:35:00
7:55 AM,39.2,36.5,90,30.09,4.0,NNE,6.9,-,N/A,,Overcast,30,2012-11-30 13:55:00
8:15 AM,39.4,36.7,90,30.10,4.0,NNE,6.9,-,N/A,,Overcast,30,2012-11-30 14:15:00
8:35 AM,40.3,37.4,89,30.09,4.0,NE,8.1,-,N/A,,Overcast,40,2012-11-30 14:35:00
9:15 AM,41.7,37.9,86,30.09,5.0,ENE,11.5,17.3,N/A,,Overcast,70,2012-11-30 15:15:00
9:35 AM,42.1,37.4,83,30.10,5.0,ENE,11.5,-,N/A,,Overcast,70,2012-11-30 15:35:00
9:55 AM,42.1,37.4,83,30.11,4.0,East,11.5,18.4,N/A,,Haze,90,2012-11-30 15:55:00
10:15 AM,42.3,37.0,82,30.11,5.0,East,12.7,-,N/A,,Haze,80,2012-11-30 16:15:00
10:55 AM,42.1,36.9,82,30.12,5.0,ENE,8.1,-,N/A,,Haze,70,2012-11-30 16:55:00
11:15 AM,42.1,36.7,81,30.11,5.0,ENE,10.4,-,N/A,,Haze,70,2012-11-30 17:15:00
11:35 AM,42.6,36.7,79,30.11,5.0,East,11.5,-,N/A,,Haze,80,2012-11-30 17:35:00
12:55 PM,41.9,35.8,79,30.11,7.0,ENE,8.1,-,N/A,,Overcast,60,2012-11-30 18:55:00
1:15 PM,41.5,35.6,79,30.11,7.0,ENE,10.4,-,N/A,,Overcast,70,2012-11-30 19:15:00
1:35 PM,41.4,35.2,79,30.11,7.0,ENE,6.9,-,N/A,,Overcast,60,2012-11-30 19:35:00
1:55 PM,41.5,35.2,78,30.09,7.0,East,12.7,-,N/A,,Overcast,80,2012-11-30 19:55:00
2:15 PM,41.7,35.2,78,30.08,7.0,ENE,13.8,17.3,N/A,,Overcast,60,2012-11-30 20:15:00
2:35 PM,41.2,35.1,79,30.10,5.0,ENE,8.1,11.5,N/A,,Haze,60,2012-11-30 20:35:00
2:55 PM,40.6,34.7,79,30.11,4.0,East,11.5,-,N/A,,Haze,90,2012-11-30 20:55:00
3:15 PM,40.1,34.7,81,30.13,7.0,ENE,8.1,-,N/A,,Overcast,70,2012-11-30 21:15:00
3:35 PM,39.7,34.7,82,30.15,7.0,NE,8.1,-,N/A,,Overcast,50,2012-11-30 21:35:00
3:55 PM,39.2,34.7,84,30.15,5.0,ENE,8.1,-,N/A,,Overcast,60,2012-11-30 21:55:00
4:15 PM,39.2,34.5,83,30.16,5.0,ENE,8.1,-,N/A,,Overcast,60,2012-11-30 22:15:00
4:35 PM,38.8,34.3,84,30.15,7.0,NE,9.2,-,N/A,,Overcast,50,2012-11-30 22:35:00
4:55 PM,38.5,34.3,85,30.14,7.0,ENE,10.4,-,N/A,,Overcast,70,2012-11-30 22:55:00
5:15 PM,38.5,34.5,86,30.16,5.0,East,6.9,-,N/A,,Overcast,90,2012-11-30 23:15:00
6:15 PM,38.3,34.2,85,30.17,7.0,East,8.1,-,N/A,,Overcast,90,2012-12-01 00:15:00
6:35 PM,38.3,34.0,84,30.17,5.0,East,8.1,-,N/A,,Overcast,80,2012-12-01 00:35:00
6:55 PM,38.1,33.8,84,30.16,5.0,East,10.4,-,N/A,,Overcast,80,2012-12-01 00:55:00
7:15 PM,37.8,33.8,86,30.17,7.0,ENE,8.1,-,N/A,,Overcast,70,2012-12-01 01:15:00
7:35 PM,37.6,33.8,86,30.17,7.0,ENE,6.9,-,N/A,,Overcast,60,2012-12-01 01:35:00
7:55 PM,37.8,33.8,86,30.16,7.0,East,8.1,-,N/A,,Overcast,100,2012-12-01 01:55:00
8:15 PM,37.9,33.8,85,30.14,7.0,East,8.1,-,N/A,,Overcast,90,2012-12-01 02:15:00
8:35 PM,38.1,33.8,84,30.16,7.0,ESE,3.5,-,N/A,,Overcast,110,2012-12-01 02:35:00
9:15 PM,38.3,34.0,84,30.15,7.0,East,5.8,-,N/A,,Overcast,100,2012-12-01 03:15:00
9:35 PM,38.5,34.0,84,30.15,7.0,ESE,4.6,-,N/A,,Overcast,110,2012-12-01 03:35:00
10:15 PM,38.5,33.8,83,30.15,7.0,SE,6.9,-,N/A,,Overcast,130,2012-12-01 04:15:00
10:35 PM,38.7,33.8,83,30.15,7.0,ESE,3.5,-,N/A,,Overcast,120,2012-12-01 04:35:00
11:15 PM,38.5,34.0,84,30.16,7.0,East,3.5,-,N/A,,Overcast,100,2012-12-01 05:15:00
11:35 PM,38.5,33.8,83,30.16,7.0,ESE,4.6,-,N/A,,Overcast,120,2012-12-01 05:35:00
11:55 PM,37.8,33.8,86,30.15,7.0,East,5.8,-,N/A,,Overcast,80,2012-12-01 05:55:00